Time,TemperatureF,DewpointF,PressureIn,WindDirection,WindDirectionDegrees,WindSpeedMPH,WindSpeedGustMPH,Humidity,HourlyPrecipIn,Conditions,Clouds,dailyrainin,SoftwareType,DateUTC
2013-06-08 00:01:00,67.8,66.6,29.80,North,0,0.0,0.0,96,0.00,,,0.00,WeatherCatV1.11B39,2013-06-08 04:01:00,
2013-06-08 00:06:00,67.6,66.4,29.80,North,0,0.0,0.0,96,0.00,,,0.00,WeatherCatV1.11B39,2013-06-08 04:06:00,
2013-06-08 00:11:00,67.4,66.2,29.80,North,0,0.0,0.0,96,0.00,,,0.00,WeatherCatV1.11B39,2013-06-08 04:11:00,
2013-06-08 00:16:00,67.4,66.2,29.80,North,0,0.0,0.0,96,0.00,,,0.00,WeatherCatV1.11B39,2013-06-08 04:16:00,
2013-06-08 00:21:00,67.3,66.1,29.80,North,0,0.0,0.0,96,0.00,,,0.00,WeatherCatV1.11B39,2013-06-08 04:21:00,
2013-06-08 00:26:00,67.3,66.1,29.80,North,0,0.0,0.0,96,0.00,,,0.00,WeatherCatV1.11B39,2013-06-08 04:26:00,
2013-06-08 00:31:00,67.1,65.9,29.80,North,0,0.0,0.0,96,0.00,,,0.00,WeatherCatV1.11B39,2013-06-08 04:31:00,
2013-06-08 00:36:00,67.1,65.9,29.80,North,0,0.0,0.0,96,0.00,,,0.00,WeatherCatV1.11B39,2013-06-08 04:36:00,
2013-06-08 00:41:00,66.9,65.7,29.80,North,0,0.0,0.0,96,0.00,,,0.00,WeatherCatV1.11B39,2013-06-08 04:41:00,
2013-06-08 00:46:00,66.8,65.6,29.80,North,0,0.0,0.0,96,0.00,,,0.00,WeatherCatV1.11B39,2013-06-08 04:46:00,
2013-06-08 00:51:00,66.8,65.6,29.80,North,0,0.0,0.0,96,0.00,,,0.00,WeatherCatV1.11B39,2013-06-08 04:51:00,
2013-06-08 00:56:00,66.8,65.6,29.80,North,0,0.0,0.0,96,0.00,,,0.00,WeatherCatV1.11B39,2013-06-08 04:56:00,
2013-06-08 01:01:00,66.8,65.6,29.81,North,0,0.0,0.0,96,0.00,,,0.00,WeatherCatV1.11B39,2013-06-08 05:01:00,
2013-06-08 01:06:00,66.8,65.6,29.81,North,0,0.0,0.0,96,0.00,,,0.00,WeatherCatV1.11B39,2013-06-08 05:06:00,
2013-06-08 01:11:00,66.8,65.6,29.81,North,0,0.0,0.0,96,0.00,,,0.00,WeatherCatV1.11B39,2013-06-08 05:11:00,
2013-06-08 01:16:00,66.6,65.7,29.81,North,0,0.0,0.0,97,0.00,,,0.00,WeatherCatV1.11B39,2013-06-08 05:16:00,
2013-06-08 01:21:00,66.6,65.7,29.81,North,0,0.0,0.0,97,0.00,,,0.00,WeatherCatV1.11B39,2013-06-08 05:21:00,
2013-06-08 01:26:00,66.6,65.7,29.81,North,0,0.0,0.0,97,0.00,,,0.00,WeatherCatV1.11B39,2013-06-08 05:26:00,
2013-06-08 01:31:00,66.4,65.5,29.81,North,0,0.0,0.0,97,0.00,,,0.00,WeatherCatV1.11B39,2013-06-08 05:31:00,
2013-06-08 01:36:00,66.3,65.4,29.81,North,359,0.0,0.0,97,0.00,,,0.00,WeatherCatV1.11B39,2013-06-08 05:36:00,
2013-06-08 01:41:00,66.1,65.2,29.81,North,359,0.0,0.0,97,0.00,,,0.00,WeatherCatV1.11B39,2013-06-08 05:41:00,
2013-06-08 01:46:00,66.0,65.1,29.81,North,359,0.0,0.0,97,0.00,,,0.00,WeatherCatV1.11B39,2013-06-08 05:46:00,
2013-06-08 01:51:00,65.8,64.9,29.81,North,359,0.0,0.0,97,0.00,,,0.00,WeatherCatV1.11B39,2013-06-08 05:51:00,
2013-06-08 01:56:00,65.8,64.6,29.81,North,359,0.0,0.0,96,0.00,,,0.00,WeatherCatV1.11B39,2013-06-08 05:56:00,
2013-06-08 02:01:00,65.8,64.9,29.81,North,359,0.0,0.0,97,0.00,,,0.00,WeatherCatV1.11B39,2013-06-08 06:01:00,
2013-06-08 02:06:00,65.6,64.7,29.81,North,359,0.0,0.0,97,0.00,,,0.00,WeatherCatV1.11B39,2013-06-08 06:06:00,
2013-06-08 02:11:00,65.6,64.4,29.81,North,359,0.0,0.0,96,0.00,,,0.00,WeatherCatV1.11B39,2013-06-08 06:11:00,
2013-06-08 02:16:00,65.3,64.1,29.81,North,359,0.0,0.0,96,0.00,,,0.00,WeatherCatV1.11B39,2013-06-08 06:16:00,
2013-06-08 02:21:00,65.2,64.0,29.81,North,359,0.0,0.0,96,0.00,,,0.00,WeatherCatV1.11B39,2013-06-08 06:21:00,
2013-06-08 02:26:00,65.0,63.8,29.81,North,359,0.0,0.0,96,0.00,,,0.00,WeatherCatV1.11B39,2013-06-08 06:26:00,
2013-06-08 02:31:00,65.0,63.8,29.80,North,359,0.0,0.0,96,0.00,,,0.00,WeatherCatV1.11B39,2013-06-08 06:31:00,
2013-06-08 02:36:00,64.8,63.6,29.80,North,359,0.0,0.0,96,0.00,,,0.00,WeatherCatV1.11B39,2013-06-08 06:36:00,
2013-06-08 02:41:00,64.7,63.5,29.80,North,359,0.0,0.0,96,0.00,,,0.00,WeatherCatV1.11B39,2013-06-08 06:41:00,
2013-06-08 02:46:00,64.7,63.5,29.81,North,359,0.0,0.0,96,0.00,,,0.00,WeatherCatV1.11B39,2013-06-08 06:46:00,
2013-06-08 02:51:00,64.5,63.3,29.81,North,359,0.0,0.0,96,0.00,,,0.00,WeatherCatV1.11B39,2013-06-08 06:51:00,
2013-06-08 02:56:00,64.5,63.3,29.81,North,359,0.0,0.0,96,0.00,,,0.00,WeatherCatV1.11B39,2013-06-08 06:56:00,
2013-06-08 03:01:00,64.5,63.6,29.81,North,359,0.0,0.0,97,0.00,,,0.00,WeatherCatV1.11B39,2013-06-08 07:01:00,
2013-06-08 03:06:00,64.5,63.6,29.81,North,359,0.0,0.0,97,0.00,,,0.00,WeatherCatV1.11B39,2013-06-08 07:06:00,
2013-06-08 03:11:00,64.5,63.6,29.81,North,359,0.0,0.0,97,0.00,,,0.00,WeatherCatV1.11B39,2013-06-08 07:11:00,
2013-06-08 03:16:00,64.5,63.6,29.81,North,359,0.0,0.0,97,0.00,,,0.00,WeatherCatV1.11B39,2013-06-08 07:16:00,
2013-06-08 03:21:00,64.5,63.6,29.81,North,359,0.0,0.0,97,0.00,,,0.00,WeatherCatV1.11B39,2013-06-08 07:21:00,
2013-06-08 03:26:00,64.5,63.6,29.81,North,359,0.0,0.0,97,0.00,,,0.00,WeatherCatV1.11B39,2013-06-08 07:26:00,
2013-06-08 03:31:00,64.3,63.4,29.81,North,359,0.0,0.0,97,0.00,,,0.00,WeatherCatV1.11B39,2013-06-08 07:31:00,
2013-06-08 03:36:00,64.3,63.4,29.81,North,359,0.0,0.0,97,0.00,,,0.00,WeatherCatV1.11B39,2013-06-08 07:36:00,
2013-06-08 03:41:00,64.2,63.3,29.81,North,359,0.0,0.0,97,0.00,,,0.00,WeatherCatV1.11B39,2013-06-08 07:41:00,
2013-06-08 03:46:00,64.2,63.3,29.82,North,359,0.0,0.0,97,0.00,,,0.00,WeatherCatV1.11B39,2013-06-08 07:46:00,
2013-06-08 03:51:00,64.0,63.1,29.82,North,359,0.0,0.0,97,0.00,,,0.00,WeatherCatV1.11B39,2013-06-08 07:51:00,
2013-06-08 03:56:00,64.0,63.1,29.82,North,359,0.0,0.0,97,0.00,,,0.00,WeatherCatV1.11B39,2013-06-08 07:56:00,
2013-06-08 04:01:00,64.0,63.1,29.82,North,359,0.0,0.0,97,0.00,,,0.00,WeatherCatV1.11B39,2013-06-08 08:01:00,
2013-06-08 04:06:00,64.0,63.1,29.82,North,359,0.0,0.0,97,0.00,,,0.00,WeatherCatV1.11B39,2013-06-08 08:06:00,
2013-06-08 04:11:00,63.7,62.8,29.82,North,359,0.0,0.0,97,0.00,,,0.00,WeatherCatV1.11B39,2013-06-08 08:11:00,
2013-06-08 04:16:00,63.5,62.6,29.82,North,359,0.0,0.0,97,0.00,,,0.00,WeatherCatV1.11B39,2013-06-08 08:16:00,
2013-06-08 04:21:00,63.5,62.6,29.82,North,359,0.0,0.0,97,0.00,,,0.00,WeatherCatV1.11B39,2013-06-08 08:21:00,
2013-06-08 04:26:00,63.4,62.5,29.82,North,359,0.0,0.0,97,0.00,,,0.00,WeatherCatV1.11B39,2013-06-08 08:26:00,
2013-06-08 04:31:00,63.4,62.5,29.83,North,359,0.0,0.0,97,0.00,,,0.00,WeatherCatV1.11B39,2013-06-08 08:31:00,
2013-06-08 04:36:00,63.4,62.5,29.83,North,359,0.0,0.0,97,0.00,,,0.00,WeatherCatV1.11B39,2013-06-08 08:36:00,
2013-06-08 04:41:00,63.4,62.5,29.83,North,359,0.0,0.0,97,0.00,,,0.00,WeatherCatV1.11B39,2013-06-08 08:41:00,
2013-06-08 04:46:00,63.5,62.6,29.84,North,359,0.0,0.0,97,0.00,,,0.00,WeatherCatV1.11B39,2013-06-08 08:46:00,
2013-06-08 04:51:00,63.5,62.6,29.84,North,359,0.0,0.0,97,0.00,,,0.00,WeatherCatV1.11B39,2013-06-08 08:51:00,
2013-06-08 04:56:00,63.4,62.5,29.84,North,359,0.0,0.0,97,0.00,,,0.00,WeatherCatV1.11B39,2013-06-08 08:56:00,
2013-06-08 05:01:00,63.4,62.5,29.85,North,359,0.0,0.0,97,0.00,,,0.00,WeatherCatV1.11B39,2013-06-08 09:01:00,
2013-06-08 05:06:00,63.2,62.3,29.85,North,359,0.0,0.0,97,0.00,,,0.00,WeatherCatV1.11B39,2013-06-08 09:06:00,
2013-06-08 05:11:00,63.4,62.5,29.85,North,359,0.0,0.0,97,0.00,,,0.00,WeatherCatV1.11B39,2013-06-08 09:11:00,
2013-06-08 05:16:00,63.5,62.9,29.86,North,359,0.0,0.0,98,0.00,,,0.00,WeatherCatV1.11B39,2013-06-08 09:16:00,
2013-06-08 05:21:00,63.5,62.9,29.86,North,359,0.0,0.0,98,0.00,,,0.00,WeatherCatV1.11B39,2013-06-08 09:21:00,
2013-06-08 05:26:00,63.5,62.9,29.86,North,359,0.0,0.0,98,0.00,,,0.00,WeatherCatV1.11B39,2013-06-08 09:26:00,
2013-06-08 05:31:00,63.4,62.5,29.86,North,359,0.0,0.0,97,0.00,,,0.00,WeatherCatV1.11B39,2013-06-08 09:31:00,
2013-06-08 05:36:00,63.5,62.9,29.86,North,359,0.0,0.0,98,0.00,,,0.00,WeatherCatV1.11B39,2013-06-08 09:36:00,
2013-06-08 05:41:00,63.5,62.9,29.86,North,359,0.0,0.0,98,0.00,,,0.00,WeatherCatV1.11B39,2013-06-08 09:41:00,
2013-06-08 05:46:00,63.5,62.9,29.86,North,359,0.0,0.0,98,0.00,,,0.00,WeatherCatV1.11B39,2013-06-08 09:46:00,
2013-06-08 05:51:00,63.5,62.9,29.86,North,359,0.0,0.0,98,0.00,,,0.00,WeatherCatV1.11B39,2013-06-08 09:51:00,
2013-06-08 05:56:00,63.4,62.8,29.86,North,359,0.0,0.0,98,0.00,,,0.00,WeatherCatV1.11B39,2013-06-08 09:56:00,
2013-06-08 06:01:00,63.5,62.9,29.87,North,359,0.0,0.0,98,0.00,,,0.00,WeatherCatV1.11B39,2013-06-08 10:01:00,
2013-06-08 06:06:00,63.5,62.9,29.87,North,359,0.0,0.0,98,0.00,,,0.00,WeatherCatV1.11B39,2013-06-08 10:06:00,
2013-06-08 06:11:00,63.7,63.1,29.87,North,359,0.0,0.0,98,0.00,,,0.00,WeatherCatV1.11B39,2013-06-08 10:11:00,
2013-06-08 06:16:00,63.7,63.1,29.88,North,359,0.0,0.0,98,0.00,,,0.00,WeatherCatV1.11B39,2013-06-08 10:16:00,
2013-06-08 06:21:00,63.7,63.1,29.88,North,359,0.0,0.0,98,0.00,,,0.00,WeatherCatV1.11B39,2013-06-08 10:21:00,
2013-06-08 06:26:00,63.7,63.1,29.88,North,359,0.0,0.0,98,0.00,,,0.00,WeatherCatV1.11B39,2013-06-08 10:26:00,
2013-06-08 06:31:00,63.9,63.3,29.89,North,359,0.0,0.0,98,0.00,,,0.00,WeatherCatV1.11B39,2013-06-08 10:31:00,
2013-06-08 06:36:00,63.9,63.3,29.89,North,359,0.0,0.0,98,0.00,,,0.00,WeatherCatV1.11B39,2013-06-08 10:36:00,
2013-06-08 06:41:00,63.9,63.3,29.89,North,359,0.0,0.0,98,0.00,,,0.00,WeatherCatV1.11B39,2013-06-08 10:41:00,
2013-06-08 06:46:00,63.9,63.3,29.89,North,359,0.0,0.0,98,0.00,,,0.00,WeatherCatV1.11B39,2013-06-08 10:46:00,
2013-06-08 06:51:00,63.9,63.3,29.89,North,354,0.0,0.0,98,0.00,,,0.00,WeatherCatV1.11B39,2013-06-08 10:51:00,
2013-06-08 06:56:00,63.9,63.3,29.89,North,354,0.0,0.0,98,0.00,,,0.00,WeatherCatV1.11B39,2013-06-08 10:56:00,
2013-06-08 07:01:00,64.2,63.6,29.90,North,354,0.0,0.0,98,0.00,,,0.00,WeatherCatV1.11B39,2013-06-08 11:01:00,
2013-06-08 07:06:00,64.2,63.6,29.90,North,354,0.0,0.0,98,0.00,,,0.00,WeatherCatV1.11B39,2013-06-08 11:06:00,
2013-06-08 07:11:00,64.2,63.6,29.90,North,354,0.0,0.0,98,0.00,,,0.00,WeatherCatV1.11B39,2013-06-08 11:11:00,
2013-06-08 07:16:00,64.3,63.7,29.91,North,354,0.0,0.0,98,0.00,,,0.00,WeatherCatV1.11B39,2013-06-08 11:16:00,
2013-06-08 07:21:00,64.5,63.9,29.91,North,354,0.0,0.0,98,0.00,,,0.00,WeatherCatV1.11B39,2013-06-08 11:21:00,
2013-06-08 07:26:00,64.5,63.9,29.91,North,354,0.0,0.0,98,0.00,,,0.00,WeatherCatV1.11B39,2013-06-08 11:26:00,
2013-06-08 07:31:00,64.8,64.2,29.91,North,354,0.0,0.0,98,0.00,,,0.00,WeatherCatV1.11B39,2013-06-08 11:31:00,
2013-06-08 07:37:00,65.0,64.4,29.91,North,354,0.0,0.0,98,0.00,,,0.00,WeatherCatV1.11B39,2013-06-08 11:37:00,
2013-06-08 07:42:00,65.2,64.6,29.91,North,354,0.0,0.0,98,0.00,,,0.00,WeatherCatV1.11B39,2013-06-08 11:42:00,
2013-06-08 07:47:00,65.2,64.6,29.91,NNW,343,0.0,0.0,98,0.00,,,0.00,WeatherCatV1.11B39,2013-06-08 11:47:00,
2013-06-08 07:52:00,65.5,64.9,29.91,NNW,343,0.0,0.0,98,0.00,,,0.00,WeatherCatV1.11B39,2013-06-08 11:52:00,
2013-06-08 07:57:00,65.6,65.0,29.91,NNW,343,0.0,0.0,98,0.00,,,0.00,WeatherCatV1.11B39,2013-06-08 11:57:00,
2013-06-08 08:02:00,66.0,65.4,29.92,NNW,343,0.0,0.0,98,0.00,,,0.00,WeatherCatV1.11B39,2013-06-08 12:02:00,
2013-06-08 08:07:00,66.1,65.5,29.92,North,356,0.0,0.0,98,0.00,,,0.00,WeatherCatV1.11B39,2013-06-08 12:07:00,
2013-06-08 08:12:00,66.3,65.7,29.92,North,356,0.0,0.0,98,0.00,,,0.00,WeatherCatV1.11B39,2013-06-08 12:12:00,
2013-06-08 08:17:00,66.8,66.2,29.92,North,356,0.0,0.0,98,0.00,,,0.00,WeatherCatV1.11B39,2013-06-08 12:17:00,
2013-06-08 08:22:00,66.8,66.2,29.92,North,353,0.0,0.0,98,0.00,,,0.00,WeatherCatV1.11B39,2013-06-08 12:22:00,
2013-06-08 08:27:00,66.6,66.0,29.92,North,353,0.0,0.0,98,0.00,,,0.00,WeatherCatV1.11B39,2013-06-08 12:27:00,
2013-06-08 08:32:00,67.1,66.5,29.92,North,353,0.0,0.0,98,0.00,,,0.00,WeatherCatV1.11B39,2013-06-08 12:32:00,
2013-06-08 08:37:00,67.6,67.0,29.92,North,353,0.0,0.0,98,0.00,,,0.00,WeatherCatV1.11B39,2013-06-08 12:37:00,
2013-06-08 08:42:00,67.6,67.0,29.92,North,353,0.0,0.0,98,0.00,,,0.00,WeatherCatV1.11B39,2013-06-08 12:42:00,
2013-06-08 08:47:00,68.3,67.7,29.93,North,353,0.0,0.0,98,0.00,,,0.00,WeatherCatV1.11B39,2013-06-08 12:47:00,
2013-06-08 08:52:00,68.3,67.7,29.93,North,354,0.0,0.0,98,0.00,,,0.00,WeatherCatV1.11B39,2013-06-08 12:52:00,
2013-06-08 08:57:00,68.4,67.8,29.93,North,353,0.0,0.0,98,0.00,,,0.00,WeatherCatV1.11B39,2013-06-08 12:57:00,
2013-06-08 09:02:00,68.4,67.8,29.93,NNW,337,0.0,0.0,98,0.00,,,0.00,WeatherCatV1.11B39,2013-06-08 13:02:00,
2013-06-08 09:07:00,68.6,68.0,29.93,NNW,337,0.0,0.0,98,0.00,,,0.00,WeatherCatV1.11B39,2013-06-08 13:07:00,
2013-06-08 09:12:00,69.4,65.7,29.93,NNW,337,0.0,0.0,88,0.00,,,0.00,WeatherCatV1.11B39,2013-06-08 13:12:00,
2013-06-08 09:17:00,69.8,65.7,29.94,NNW,337,0.0,0.0,87,0.00,,,0.00,WeatherCatV1.11B39,2013-06-08 13:17:00,
2013-06-08 09:22:00,69.8,65.4,29.94,NNW,337,0.0,0.0,86,0.00,,,0.00,WeatherCatV1.11B39,2013-06-08 13:22:00,
2013-06-08 09:27:00,70.4,66.0,29.94,NNW,330,0.0,0.0,86,0.00,,,0.00,WeatherCatV1.11B39,2013-06-08 13:27:00,
2013-06-08 09:32:00,70.6,66.2,29.95,NNW,333,0.0,0.0,86,0.00,,,0.00,WeatherCatV1.11B39,2013-06-08 13:32:00,
2013-06-08 09:37:00,70.6,64.8,29.95,NNW,337,0.0,0.0,82,0.00,,,0.00,WeatherCatV1.11B39,2013-06-08 13:37:00,
2013-06-08 09:42:00,70.9,65.1,29.95,West,281,0.0,0.0,82,0.00,,,0.00,WeatherCatV1.11B39,2013-06-08 13:42:00,
2013-06-08 09:47:00,71.3,65.5,29.96,NE,47,0.0,0.0,82,0.00,,,0.00,WeatherCatV1.11B39,2013-06-08 13:47:00,
2013-06-08 09:52:00,71.3,65.5,29.96,NE,52,0.0,0.0,82,0.00,,,0.00,WeatherCatV1.11B39,2013-06-08 13:52:00,
2013-06-08 09:57:00,71.6,65.8,29.96,NE,52,0.0,0.0,82,0.00,,,0.00,WeatherCatV1.11B39,2013-06-08 13:57:00,
2013-06-08 10:02:00,71.8,66.0,29.96,NNE,28,0.0,0.0,82,0.00,,,0.00,WeatherCatV1.11B39,2013-06-08 14:02:00,
2013-06-08 10:07:00,72.0,65.5,29.96,NNE,28,0.0,0.0,80,0.00,,,0.00,WeatherCatV1.11B39,2013-06-08 14:07:00,
2013-06-08 10:12:00,71.8,65.3,29.96,ENE,68,0.0,0.0,80,0.00,,,0.00,WeatherCatV1.11B39,2013-06-08 14:12:00,
2013-06-08 10:17:00,72.3,65.8,29.96,East,85,0.0,0.0,80,0.00,,,0.00,WeatherCatV1.11B39,2013-06-08 14:17:00,
2013-06-08 10:22:00,72.7,66.2,29.96,NNE,32,0.0,0.0,80,0.00,,,0.00,WeatherCatV1.11B39,2013-06-08 14:22:00,
2013-06-08 10:27:00,72.7,66.2,29.96,NNE,25,0.0,0.0,80,0.00,,,0.00,WeatherCatV1.11B39,2013-06-08 14:27:00,
2013-06-08 10:32:00,72.8,66.3,29.96,North,349,0.0,0.0,80,0.00,,,0.00,WeatherCatV1.11B39,2013-06-08 14:32:00,
2013-06-08 10:37:00,73.2,66.6,29.96,SSE,152,0.0,0.0,80,0.00,,,0.00,WeatherCatV1.11B39,2013-06-08 14:37:00,
2013-06-08 10:42:00,73.2,65.9,29.96,NE,38,0.0,0.0,78,0.00,,,0.00,WeatherCatV1.11B39,2013-06-08 14:42:00,
2013-06-08 10:47:00,73.7,66.4,29.97,NW,319,0.0,0.0,78,0.00,,,0.00,WeatherCatV1.11B39,2013-06-08 14:47:00,
2013-06-08 10:52:00,73.7,66.0,29.97,NE,48,0.0,0.0,77,0.00,,,0.00,WeatherCatV1.11B39,2013-06-08 14:52:00,
2013-06-08 10:57:00,73.9,66.2,29.97,NE,45,0.0,0.0,77,0.00,,,0.00,WeatherCatV1.11B39,2013-06-08 14:57:00,
2013-06-08 11:02:00,73.7,66.0,29.97,ESE,113,0.0,0.0,77,0.00,,,0.00,WeatherCatV1.11B39,2013-06-08 15:02:00,
2013-06-08 11:07:00,73.9,65.5,29.97,North,352,0.0,0.0,75,0.00,,,0.00,WeatherCatV1.11B39,2013-06-08 15:07:00,
2013-06-08 11:12:00,73.5,65.8,29.97,North,352,0.0,0.0,77,0.00,,,0.00,WeatherCatV1.11B39,2013-06-08 15:12:00,
2013-06-08 11:17:00,73.5,65.1,29.97,NE,49,0.0,0.0,75,0.00,,,0.00,WeatherCatV1.11B39,2013-06-08 15:17:00,
2013-06-08 11:22:00,73.7,65.3,29.97,North,349,0.0,0.0,75,0.00,,,0.00,WeatherCatV1.11B39,2013-06-08 15:22:00,
2013-06-08 11:27:00,73.7,65.3,29.97,NNW,340,0.0,0.0,75,0.00,,,0.00,WeatherCatV1.11B39,2013-06-08 15:27:00,
2013-06-08 11:32:00,74.2,65.8,29.97,North,349,0.0,0.0,75,0.00,,,0.00,WeatherCatV1.11B39,2013-06-08 15:32:00,
2013-06-08 11:37:00,74.6,66.1,29.97,North,349,0.0,0.0,75,0.00,,,0.00,WeatherCatV1.11B39,2013-06-08 15:37:00,
2013-06-08 11:42:00,74.7,66.2,29.97,NNW,343,0.0,0.0,75,0.00,,,0.00,WeatherCatV1.11B39,2013-06-08 15:42:00,
2013-06-08 11:47:00,75.3,66.0,29.97,WSW,254,0.0,0.0,73,0.00,,,0.00,WeatherCatV1.11B39,2013-06-08 15:47:00,
2013-06-08 11:52:00,75.1,65.8,29.97,North,3,0.0,0.0,73,0.00,,,0.00,WeatherCatV1.11B39,2013-06-08 15:52:00,
2013-06-08 11:57:00,74.9,65.6,29.97,North,7,0.0,0.0,73,0.00,,,0.00,WeatherCatV1.11B39,2013-06-08 15:57:00,
2013-06-08 12:02:00,74.9,65.6,29.98,ESE,119,0.0,0.0,73,0.00,,,0.00,WeatherCatV1.11B39,2013-06-08 16:02:00,
2013-06-08 12:07:00,75.6,66.3,29.98,ESE,119,0.0,0.0,73,0.00,,,0.00,WeatherCatV1.11B39,2013-06-08 16:07:00,
2013-06-08 12:12:00,75.8,66.5,29.98,North,356,0.0,0.0,73,0.00,,,0.00,WeatherCatV1.11B39,2013-06-08 16:12:00,
2013-06-08 12:17:00,75.8,66.5,29.98,North,4,0.0,0.0,73,0.00,,,0.00,WeatherCatV1.11B39,2013-06-08 16:17:00,
2013-06-08 12:22:00,75.6,66.3,29.98,North,354,0.0,0.0,73,0.00,,,0.00,WeatherCatV1.11B39,2013-06-08 16:22:00,
2013-06-08 12:27:00,75.8,66.5,29.98,North,354,0.0,0.0,73,0.00,,,0.00,WeatherCatV1.11B39,2013-06-08 16:27:00,
2013-06-08 12:32:00,76.1,66.8,29.98,WSW,251,0.0,0.0,73,0.00,,,0.00,WeatherCatV1.11B39,2013-06-08 16:32:00,
2013-06-08 12:37:00,76.1,66.8,29.98,WSW,243,0.0,0.0,73,0.00,,,0.00,WeatherCatV1.11B39,2013-06-08 16:37:00,
2013-06-08 12:42:00,76.8,67.5,29.98,SSE,168,0.0,0.0,73,0.00,,,0.00,WeatherCatV1.11B39,2013-06-08 16:42:00,
2013-06-08 12:47:00,76.8,67.5,29.98,NE,34,0.0,0.0,73,0.00,,,0.00,WeatherCatV1.11B39,2013-06-08 16:47:00,
2013-06-08 12:52:00,76.8,67.5,29.98,East,99,0.0,0.0,73,0.00,,,0.00,WeatherCatV1.11B39,2013-06-08 16:52:00,
2013-06-08 12:57:00,77.0,67.7,29.98,SSE,164,0.0,0.0,73,0.00,,,0.00,WeatherCatV1.11B39,2013-06-08 16:57:00,
2013-06-08 13:02:00,76.5,67.2,29.98,SSE,148,0.0,0.0,73,0.00,,,0.00,WeatherCatV1.11B39,2013-06-08 17:02:00,
2013-06-08 13:07:00,76.7,67.4,29.98,ESE,112,0.0,0.0,73,0.00,,,0.00,WeatherCatV1.11B39,2013-06-08 17:07:00,
2013-06-08 13:12:00,76.7,67.4,29.98,ESE,121,0.0,0.0,73,0.00,,,0.00,WeatherCatV1.11B39,2013-06-08 17:12:00,
2013-06-08 13:17:00,76.8,67.5,29.98,South,178,0.0,0.0,73,0.00,,,0.00,WeatherCatV1.11B39,2013-06-08 17:17:00,
2013-06-08 13:22:00,77.0,66.4,29.98,SSE,167,0.0,0.0,70,0.00,,,0.00,WeatherCatV1.11B39,2013-06-08 17:22:00,
2013-06-08 13:27:00,77.0,66.4,29.98,South,178,0.0,0.0,70,0.00,,,0.00,WeatherCatV1.11B39,2013-06-08 17:27:00,
2013-06-08 13:32:00,77.0,66.4,29.98,SSW,212,0.0,0.0,70,0.00,,,0.00,WeatherCatV1.11B39,2013-06-08 17:32:00,
2013-06-08 13:37:00,77.0,66.0,29.98,SE,130,0.0,0.0,69,0.00,,,0.00,WeatherCatV1.11B39,2013-06-08 17:37:00,
2013-06-08 13:42:00,77.2,66.2,29.98,ESE,113,0.0,0.0,69,0.00,,,0.00,WeatherCatV1.11B39,2013-06-08 17:42:00,
2013-06-08 13:47:00,77.4,66.4,29.97,ESE,114,0.0,0.0,69,0.00,,,0.00,WeatherCatV1.11B39,2013-06-08 17:47:00,
2013-06-08 13:52:00,77.4,66.4,29.97,SE,145,0.0,0.0,69,0.00,,,0.00,WeatherCatV1.11B39,2013-06-08 17:52:00,
2013-06-08 13:57:00,77.6,66.6,29.97,SSE,152,0.0,0.0,69,0.00,,,0.00,WeatherCatV1.11B39,2013-06-08 17:57:00,
2013-06-08 14:02:00,77.9,66.9,29.97,SSE,152,0.0,0.0,69,0.00,,,0.00,WeatherCatV1.11B39,2013-06-08 18:02:00,
2013-06-08 14:07:00,78.1,67.1,29.97,SSE,155,0.0,0.0,69,0.00,,,0.00,WeatherCatV1.11B39,2013-06-08 18:07:00,
2013-06-08 14:12:00,78.1,67.1,29.97,SSE,167,0.0,0.0,69,0.00,,,0.00,WeatherCatV1.11B39,2013-06-08 18:12:00,
2013-06-08 14:17:00,77.9,66.9,29.97,SSE,150,0.0,0.0,69,0.00,,,0.00,WeatherCatV1.11B39,2013-06-08 18:17:00,
2013-06-08 14:22:00,77.6,66.6,29.97,SSE,157,2.0,2.0,69,0.00,,,0.00,WeatherCatV1.11B39,2013-06-08 18:22:00,
2013-06-08 14:27:00,77.7,66.7,29.97,SSE,162,0.0,0.0,69,0.00,,,0.00,WeatherCatV1.11B39,2013-06-08 18:27:00,
2013-06-08 14:32:00,78.1,67.1,29.97,SE,138,0.0,0.0,69,0.00,,,0.00,WeatherCatV1.11B39,2013-06-08 18:32:00,
2013-06-08 14:37:00,78.1,67.1,29.97,SSE,164,0.0,0.0,69,0.00,,,0.00,WeatherCatV1.11B39,2013-06-08 18:37:00,
2013-06-08 14:42:00,78.1,67.1,29.97,SSE,162,0.0,0.0,69,0.00,,,0.00,WeatherCatV1.11B39,2013-06-08 18:42:00,
2013-06-08 14:47:00,78.1,67.1,29.97,SE,138,0.0,0.0,69,0.00,,,0.00,WeatherCatV1.11B39,2013-06-08 18:47:00,
2013-06-08 14:52:00,78.1,67.1,29.97,SSE,161,0.0,0.0,69,0.00,,,0.00,WeatherCatV1.11B39,2013-06-08 18:52:00,
2013-06-08 14:57:00,78.3,65.5,29.97,SSE,154,0.0,3.0,65,0.00,,,0.00,WeatherCatV1.11B39,2013-06-08 18:57:00,
2013-06-08 15:02:00,78.3,65.5,29.96,SSE,151,0.0,1.0,65,0.00,,,0.00,WeatherCatV1.11B39,2013-06-08 19:02:00,
2013-06-08 15:07:00,78.3,65.5,29.96,SSE,164,0.0,0.0,65,0.00,,,0.00,WeatherCatV1.11B39,2013-06-08 19:07:00,
2013-06-08 15:12:00,78.6,65.4,29.96,North,4,0.0,1.0,64,0.00,,,0.00,WeatherCatV1.11B39,2013-06-08 19:12:00,
2013-06-08 15:17:00,78.8,65.6,29.96,ESE,121,0.0,0.0,64,0.00,,,0.00,WeatherCatV1.11B39,2013-06-08 19:17:00,
2013-06-08 15:22:00,79.0,65.8,29.96,SE,143,0.0,0.0,64,0.00,,,0.00,WeatherCatV1.11B39,2013-06-08 19:22:00,
2013-06-08 15:27:00,78.8,66.0,29.96,SE,145,0.0,0.0,65,0.00,,,0.00,WeatherCatV1.11B39,2013-06-08 19:27:00,
2013-06-08 15:32:00,78.8,66.0,29.96,SE,144,0.0,0.0,65,0.00,,,0.00,WeatherCatV1.11B39,2013-06-08 19:32:00,
2013-06-08 15:37:00,78.6,65.8,29.96,SSE,155,1.0,3.0,65,0.00,,,0.00,WeatherCatV1.11B39,2013-06-08 19:37:00,
2013-06-08 15:42:00,78.8,66.0,29.96,SSE,147,0.0,0.0,65,0.00,,,0.00,WeatherCatV1.11B39,2013-06-08 19:42:00,
2013-06-08 15:47:00,79.2,66.4,29.96,North,0,0.0,0.0,65,0.00,,,0.00,WeatherCatV1.11B39,2013-06-08 19:47:00,
2013-06-08 15:52:00,79.4,66.6,29.96,SE,137,0.0,0.0,65,0.00,,,0.00,WeatherCatV1.11B39,2013-06-08 19:52:00,
2013-06-08 15:57:00,79.4,66.6,29.96,SSE,164,0.0,0.0,65,0.00,,,0.00,WeatherCatV1.11B39,2013-06-08 19:57:00,
2013-06-08 16:02:00,79.2,65.9,29.96,SE,134,0.0,0.0,64,0.00,,,0.00,WeatherCatV1.11B39,2013-06-08 20:02:00,
2013-06-08 16:07:00,78.8,65.6,29.96,SE,145,0.0,0.0,64,0.00,,,0.00,WeatherCatV1.11B39,2013-06-08 20:07:00,
2013-06-08 16:12:00,78.8,65.6,29.96,SSE,154,0.0,0.0,64,0.00,,,0.00,WeatherCatV1.11B39,2013-06-08 20:12:00,
2013-06-08 16:17:00,78.8,65.6,29.96,SE,138,0.0,0.0,64,0.00,,,0.00,WeatherCatV1.11B39,2013-06-08 20:17:00,
2013-06-08 16:22:00,78.8,65.1,29.96,SSE,154,0.0,0.0,63,0.00,,,0.00,WeatherCatV1.11B39,2013-06-08 20:22:00,
2013-06-08 16:27:00,78.8,65.1,29.96,SE,145,0.0,0.0,63,0.00,,,0.00,WeatherCatV1.11B39,2013-06-08 20:27:00,
2013-06-08 16:32:00,79.2,65.5,29.96,SSE,154,0.0,0.0,63,0.00,,,0.00,WeatherCatV1.11B39,2013-06-08 20:32:00,
2013-06-08 16:37:00,79.4,65.7,29.96,SSE,154,0.0,0.0,63,0.00,,,0.00,WeatherCatV1.11B39,2013-06-08 20:37:00,
2013-06-08 16:42:00,79.4,65.7,29.96,SSE,164,0.0,0.0,63,0.00,,,0.00,WeatherCatV1.11B39,2013-06-08 20:42:00,
2013-06-08 16:47:00,79.4,66.1,29.96,South,171,0.0,0.0,64,0.00,,,0.00,WeatherCatV1.11B39,2013-06-08 20:47:00,
2013-06-08 16:52:00,79.4,66.6,29.96,South,171,0.0,0.0,65,0.00,,,0.00,WeatherCatV1.11B39,2013-06-08 20:52:00,
2013-06-08 16:57:00,79.4,65.2,29.96,South,171,0.0,0.0,62,0.00,,,0.00,WeatherCatV1.11B39,2013-06-08 20:57:00,
2013-06-08 17:02:00,79.4,65.2,29.96,South,171,0.0,0.0,62,0.00,,,0.00,WeatherCatV1.11B39,2013-06-08 21:02:00,
2013-06-08 17:07:00,79.4,63.3,29.96,South,171,0.0,0.0,58,0.00,,,0.00,WeatherCatV1.11B39,2013-06-08 21:07:00,
2013-06-08 17:12:00,79.4,63.3,29.96,South,171,0.0,0.0,58,0.00,,,0.00,WeatherCatV1.11B39,2013-06-08 21:12:00,
2013-06-08 17:17:00,79.4,63.3,29.96,South,171,0.0,0.0,58,0.00,,,0.00,WeatherCatV1.11B39,2013-06-08 21:17:00,
2013-06-08 17:22:00,81.2,66.0,29.96,South,182,0.0,0.0,60,0.00,,,0.00,WeatherCatV1.11B39,2013-06-08 21:22:00,
2013-06-08 17:27:00,81.1,64.9,29.96,SSE,168,0.0,0.0,58,0.00,,,0.00,WeatherCatV1.11B39,2013-06-08 21:27:00,
2013-06-08 17:32:00,80.9,64.7,29.96,SSE,155,0.0,0.0,58,0.00,,,0.00,WeatherCatV1.11B39,2013-06-08 21:32:00,
2013-06-08 17:37:00,80.9,64.7,29.96,SSE,157,0.0,0.0,58,0.00,,,0.00,WeatherCatV1.11B39,2013-06-08 21:37:00,
2013-06-08 17:42:00,81.1,64.9,29.96,SSE,157,0.0,0.0,58,0.00,,,0.00,WeatherCatV1.11B39,2013-06-08 21:42:00,
2013-06-08 17:47:00,81.4,65.2,29.95,SSE,158,0.0,0.0,58,0.00,,,0.00,WeatherCatV1.11B39,2013-06-08 21:47:00,
2013-06-08 17:52:00,81.4,65.2,29.95,SSE,164,0.0,0.0,58,0.00,,,0.00,WeatherCatV1.11B39,2013-06-08 21:52:00,
2013-06-08 17:57:00,81.2,65.0,29.95,SSE,167,0.0,0.0,58,0.00,,,0.00,WeatherCatV1.11B39,2013-06-08 21:57:00,
2013-06-08 18:02:00,81.4,65.2,29.95,SSE,167,0.0,0.0,58,0.00,,,0.00,WeatherCatV1.11B39,2013-06-08 22:02:00,
2013-06-08 18:07:00,81.8,65.6,29.95,SSE,165,0.0,0.0,58,0.00,,,0.00,WeatherCatV1.11B39,2013-06-08 22:07:00,
2013-06-08 18:12:00,82.0,65.7,29.95,SSE,165,0.0,0.0,58,0.00,,,0.00,WeatherCatV1.11B39,2013-06-08 22:12:00,
2013-06-08 18:17:00,82.2,65.9,29.95,SSE,165,0.0,0.0,58,0.00,,,0.00,WeatherCatV1.11B39,2013-06-08 22:17:00,
2013-06-08 18:22:00,82.2,65.9,29.95,South,171,0.0,0.0,58,0.00,,,0.00,WeatherCatV1.11B39,2013-06-08 22:22:00,
2013-06-08 18:27:00,82.2,65.9,29.95,South,171,0.0,0.0,58,0.00,,,0.00,WeatherCatV1.11B39,2013-06-08 22:27:00,
2013-06-08 18:32:00,82.0,65.7,29.95,South,171,0.0,0.0,58,0.00,,,0.00,WeatherCatV1.11B39,2013-06-08 22:32:00,
2013-06-08 18:37:00,82.0,65.7,29.95,South,171,0.0,0.0,58,0.00,,,0.00,WeatherCatV1.11B39,2013-06-08 22:37:00,
2013-06-08 18:42:00,81.8,65.6,29.95,South,172,0.0,0.0,58,0.00,,,0.00,WeatherCatV1.11B39,2013-06-08 22:42:00,
2013-06-08 18:47:00,81.6,65.4,29.95,South,172,0.0,0.0,58,0.00,,,0.00,WeatherCatV1.11B39,2013-06-08 22:47:00,
2013-06-08 18:52:00,81.4,65.7,29.95,South,172,0.0,0.0,59,0.00,,,0.00,WeatherCatV1.11B39,2013-06-08 22:52:00,
2013-06-08 18:57:00,81.4,65.7,29.95,South,172,0.0,0.0,59,0.00,,,0.00,WeatherCatV1.11B39,2013-06-08 22:57:00,
2013-06-08 19:02:00,81.4,65.7,29.96,South,172,0.0,0.0,59,0.00,,,0.00,WeatherCatV1.11B39,2013-06-08 23:02:00,
2013-06-08 19:07:00,81.4,65.7,29.96,South,174,0.0,0.0,59,0.00,,,0.00,WeatherCatV1.11B39,2013-06-08 23:07:00,
2013-06-08 19:12:00,81.2,66.0,29.96,South,174,0.0,0.0,60,0.00,,,0.00,WeatherCatV1.11B39,2013-06-08 23:12:00,
2013-06-08 19:17:00,80.7,65.5,29.97,South,175,0.0,0.0,60,0.00,,,0.00,WeatherCatV1.11B39,2013-06-08 23:17:00,
2013-06-08 19:22:00,80.3,65.1,29.97,South,175,0.0,0.0,60,0.00,,,0.00,WeatherCatV1.11B39,2013-06-08 23:22:00,
2013-06-08 19:27:00,80.1,65.9,29.97,South,175,0.0,0.0,62,0.00,,,0.00,WeatherCatV1.11B39,2013-06-08 23:27:00,
2013-06-08 19:32:00,79.9,65.7,29.97,South,175,0.0,0.0,62,0.00,,,0.00,WeatherCatV1.11B39,2013-06-08 23:32:00,
2013-06-08 19:37:00,79.4,65.2,29.97,South,175,0.0,0.0,62,0.00,,,0.00,WeatherCatV1.11B39,2013-06-08 23:37:00,
2013-06-08 19:42:00,79.0,64.8,29.97,South,175,0.0,0.0,62,0.00,,,0.00,WeatherCatV1.11B39,2013-06-08 23:42:00,
2013-06-08 19:47:00,78.1,64.0,29.98,South,175,0.0,0.0,62,0.00,,,0.00,WeatherCatV1.11B39,2013-06-08 23:47:00,
2013-06-08 19:52:00,78.1,64.0,29.98,South,175,0.0,0.0,62,0.00,,,0.00,WeatherCatV1.11B39,2013-06-08 23:52:00,
2013-06-08 19:57:00,77.6,63.5,29.98,South,175,0.0,0.0,62,0.00,,,0.00,WeatherCatV1.11B39,2013-06-08 23:57:00,
2013-06-08 20:02:00,77.4,63.3,29.99,South,175,0.0,0.0,62,0.00,,,0.00,WeatherCatV1.11B39,2013-06-09 00:02:00,
2013-06-08 20:07:00,77.2,63.2,29.99,South,175,0.0,0.0,62,0.00,,,0.00,WeatherCatV1.11B39,2013-06-09 00:07:00,
2013-06-08 20:12:00,77.2,63.2,29.99,South,175,0.0,0.0,62,0.00,,,0.00,WeatherCatV1.11B39,2013-06-09 00:12:00,
2013-06-08 20:17:00,76.8,62.8,29.99,South,175,0.0,0.0,62,0.00,,,0.00,WeatherCatV1.11B39,2013-06-09 00:17:00,
2013-06-08 20:22:00,76.7,62.7,29.99,South,175,0.0,0.0,62,0.00,,,0.00,WeatherCatV1.11B39,2013-06-09 00:22:00,
2013-06-08 20:27:00,76.5,62.5,29.99,South,175,0.0,0.0,62,0.00,,,0.00,WeatherCatV1.11B39,2013-06-09 00:27:00,
2013-06-08 20:32:00,76.3,62.3,30.00,South,175,0.0,0.0,62,0.00,,,0.00,WeatherCatV1.11B39,2013-06-09 00:32:00,
2013-06-08 20:37:00,76.0,62.0,30.00,South,175,0.0,0.0,62,0.00,,,0.00,WeatherCatV1.11B39,2013-06-09 00:37:00,
2013-06-08 20:42:00,75.8,61.8,30.00,South,175,0.0,0.0,62,0.00,,,0.00,WeatherCatV1.11B39,2013-06-09 00:42:00,
2013-06-08 20:47:00,75.6,67.5,29.99,South,175,0.0,0.0,76,0.00,,,0.00,WeatherCatV1.11B39,2013-06-09 00:47:00,
2013-06-08 20:52:00,75.4,67.3,29.99,South,175,0.0,0.0,76,0.00,,,0.00,WeatherCatV1.11B39,2013-06-09 00:52:00,
2013-06-08 20:57:00,75.1,67.0,29.99,South,175,0.0,0.0,76,0.00,,,0.00,WeatherCatV1.11B39,2013-06-09 00:57:00,
2013-06-08 21:02:00,75.1,67.0,30.00,South,175,0.0,0.0,76,0.00,,,0.00,WeatherCatV1.11B39,2013-06-09 01:02:00,
2013-06-08 21:07:00,74.9,67.6,30.00,South,175,0.0,0.0,78,0.00,,,0.00,WeatherCatV1.11B39,2013-06-09 01:07:00,
2013-06-08 21:12:00,74.7,67.4,30.00,South,175,0.0,0.0,78,0.00,,,0.00,WeatherCatV1.11B39,2013-06-09 01:12:00,
2013-06-08 21:17:00,74.6,67.3,30.00,South,175,0.0,0.0,78,0.00,,,0.00,WeatherCatV1.11B39,2013-06-09 01:17:00,
2013-06-08 21:22:00,74.6,67.3,30.00,South,175,0.0,0.0,78,0.00,,,0.00,WeatherCatV1.11B39,2013-06-09 01:22:00,
2013-06-08 21:27:00,74.2,66.9,30.00,South,175,0.0,0.0,78,0.00,,,0.00,WeatherCatV1.11B39,2013-06-09 01:27:00,
2013-06-08 21:32:00,74.0,66.7,30.01,South,175,0.0,0.0,78,0.00,,,0.00,WeatherCatV1.11B39,2013-06-09 01:32:00,
2013-06-08 21:37:00,74.0,66.7,30.01,South,175,0.0,0.0,78,0.00,,,0.00,WeatherCatV1.11B39,2013-06-09 01:37:00,
2013-06-08 21:42:00,73.9,68.0,30.01,South,175,0.0,0.0,82,0.00,,,0.00,WeatherCatV1.11B39,2013-06-09 01:42:00,
2013-06-08 21:47:00,73.7,67.8,30.02,South,175,0.0,0.0,82,0.00,,,0.00,WeatherCatV1.11B39,2013-06-09 01:47:00,
2013-06-08 21:53:00,73.7,67.8,30.02,South,175,0.0,0.0,82,0.00,,,0.00,WeatherCatV1.11B39,2013-06-09 01:53:00,
2013-06-08 21:58:00,73.7,67.8,30.02,South,175,0.0,0.0,82,0.00,,,0.00,WeatherCatV1.11B39,2013-06-09 01:58:00,
2013-06-08 22:03:00,73.7,68.2,30.02,South,175,0.0,0.0,83,0.00,,,0.00,WeatherCatV1.11B39,2013-06-09 02:03:00,
2013-06-08 22:08:00,73.3,68.2,30.02,South,175,0.0,0.0,84,0.00,,,0.00,WeatherCatV1.11B39,2013-06-09 02:08:00,
2013-06-08 22:13:00,73.3,68.2,30.02,South,175,0.0,0.0,84,0.00,,,0.00,WeatherCatV1.11B39,2013-06-09 02:13:00,
2013-06-08 22:18:00,73.2,68.1,30.02,South,175,0.0,0.0,84,0.00,,,0.00,WeatherCatV1.11B39,2013-06-09 02:18:00,
2013-06-08 22:23:00,73.2,68.1,30.02,South,175,0.0,0.0,84,0.00,,,0.00,WeatherCatV1.11B39,2013-06-09 02:23:00,
2013-06-08 22:28:00,73.0,67.9,30.02,South,175,0.0,0.0,84,0.00,,,0.00,WeatherCatV1.11B39,2013-06-09 02:28:00,
2013-06-08 22:33:00,73.2,68.1,30.03,South,175,0.0,0.0,84,0.00,,,0.00,WeatherCatV1.11B39,2013-06-09 02:33:00,
2013-06-08 22:38:00,73.2,68.1,30.03,South,175,0.0,0.0,84,0.00,,,0.00,WeatherCatV1.11B39,2013-06-09 02:38:00,
2013-06-08 22:43:00,73.0,68.2,30.03,South,175,0.0,0.0,85,0.00,,,0.00,WeatherCatV1.11B39,2013-06-09 02:43:00,
2013-06-08 22:48:00,72.8,68.4,30.04,South,175,0.0,0.0,86,0.00,,,0.00,WeatherCatV1.11B39,2013-06-09 02:48:00,
2013-06-08 22:53:00,72.8,68.4,30.04,South,175,0.0,0.0,86,0.00,,,0.00,WeatherCatV1.11B39,2013-06-09 02:53:00,
2013-06-08 22:58:00,72.7,68.3,30.04,South,175,0.0,0.0,86,0.00,,,0.00,WeatherCatV1.11B39,2013-06-09 02:58:00,
2013-06-08 23:03:00,72.7,68.6,30.04,South,175,0.0,0.0,87,0.00,,,0.00,WeatherCatV1.11B39,2013-06-09 03:03:00,
2013-06-08 23:08:00,72.5,68.4,30.04,South,175,0.0,0.0,87,0.00,,,0.00,WeatherCatV1.11B39,2013-06-09 03:08:00,
2013-06-08 23:13:00,72.5,68.4,30.04,South,175,0.0,0.0,87,0.00,,,0.00,WeatherCatV1.11B39,2013-06-09 03:13:00,
2013-06-08 23:18:00,72.5,68.4,30.03,South,175,0.0,0.0,87,0.00,,,0.00,WeatherCatV1.11B39,2013-06-09 03:18:00,
2013-06-08 23:23:00,72.7,68.6,30.03,South,175,0.0,0.0,87,0.00,,,0.00,WeatherCatV1.11B39,2013-06-09 03:23:00,
2013-06-08 23:28:00,72.5,68.4,30.03,South,175,0.0,0.0,87,0.00,,,0.00,WeatherCatV1.11B39,2013-06-09 03:28:00,
2013-06-08 23:33:00,72.5,68.4,30.03,South,175,0.0,0.0,87,0.00,,,0.00,WeatherCatV1.11B39,2013-06-09 03:33:00,
2013-06-08 23:38:00,72.3,68.2,30.03,South,175,0.0,0.0,87,0.00,,,0.00,WeatherCatV1.11B39,2013-06-09 03:38:00,
2013-06-08 23:43:00,72.3,68.2,30.03,South,175,0.0,0.0,87,0.00,,,0.00,WeatherCatV1.11B39,2013-06-09 03:43:00,
2013-06-08 23:48:00,72.1,68.0,30.03,South,175,0.0,0.0,87,0.00,,,0.00,WeatherCatV1.11B39,2013-06-09 03:48:00,
2013-06-08 23:53:00,72.1,68.0,30.03,South,175,0.0,0.0,87,0.00,,,0.00,WeatherCatV1.11B39,2013-06-09 03:53:00,
2013-06-08 23:58:00,72.1,68.3,30.03,South,175,0.0,0.0,88,0.00,,,0.00,WeatherCatV1.11B39,2013-06-09 03:58:00,